Previsão horária em Abadin

Hoje, 18 Abril, Domingo

Tempo Temperatura Precipitação Vento Pressão Humidade
00:00 -1°C° 0 mm 2 m/s 709 mmHg 97%
01:00 +1°C° 0 mm 1 m/s 709 mmHg 96%
02:00 +1°C° 0 mm 1 m/s 708 mmHg 95%
03:00 +1°C° 0 mm 1 m/s 708 mmHg 93%
04:00 +1°C° 0 mm 1 m/s 708 mmHg 90%
05:00 +1°C° 0 mm 1 m/s 708 mmHg 88%
06:00 +5°C° 0 mm 1 m/s 709 mmHg 74%
07:00 +9°C° 0 mm 1 m/s 709 mmHg 60%
08:00 +12°C° 0 mm 1 m/s 709 mmHg 46%
09:00 +14°C° 0 mm 1 m/s 709 mmHg 40%
10:00 +16°C° 0 mm 2 m/s 709 mmHg 34%
11:00 +18°C° 0 mm 2 m/s 709 mmHg 28%
12:00 +18°C° 0 mm 2 m/s 709 mmHg 29%
13:00 +18°C° 0 mm 2 m/s 709 mmHg 30%
14:00 +18°C° 0 mm 2 m/s 708 mmHg 32%
15:00 +16°C° 0 mm 2 m/s 708 mmHg 40%
16:00 +15°C° 0 mm 2 m/s 708 mmHg 48%
17:00 +14°C° 0 mm 1 m/s 708 mmHg 56%
18:00 +12°C° 0 mm 1 m/s 709 mmHg 62%
19:00 +10°C° 0 mm 1 m/s 709 mmHg 69%
20:00 +8°C° 0 mm 1 m/s 709 mmHg 75%
21:00 +8°C° 0 mm 1 m/s 708 mmHg 74%
22:00 +8°C° 0 mm 1 m/s 708 mmHg 73%
23:00 +8°C° 0 mm 1 m/s 708 mmHg 73%

Amanhã, 19 Abril, Segunda-feira

Tempo Temperatura Precipitação Vento Pressão Humidade
00:00 +8°C° 0 mm 1 m/s 708 mmHg 72%
01:00 +8°C° 0 mm 1 m/s 707 mmHg 72%
02:00 +8°C° 0 mm 1 m/s 707 mmHg 71%
03:00 +8°C° 0 mm 1 m/s 707 mmHg 70%
04:00 +8°C° 0 mm 1 m/s 707 mmHg 69%
05:00 +8°C° 0 mm 1 m/s 707 mmHg 68%
06:00 +10°C° 0 mm 1 m/s 707 mmHg 63%
07:00 +11°C° 0 mm 1 m/s 707 mmHg 58%
08:00 +13°C° 0 mm 1 m/s 708 mmHg 54%
09:00 +14°C° 0 mm 1 m/s 708 mmHg 48%
10:00 +15°C° 0 mm 1 m/s 707 mmHg 43%
11:00 +16°C° 0 mm 1 m/s 707 mmHg 37%
12:00 +16°C° 0 mm 1 m/s 707 mmHg 41%
13:00 +15°C° 0 mm 2 m/s 707 mmHg 45%
14:00 +15°C° 0 mm 2 m/s 707 mmHg 49%
15:00 +14°C° 0 mm 1 m/s 707 mmHg 54%
16:00 +12°C° 0 mm 1 m/s 707 mmHg 60%
17:00 +11°C° 0 mm 1 m/s 707 mmHg 65%
18:00 +10°C° 0.2 mm 1 m/s 707 mmHg 72%
19:00 +9°C° 0.2 mm 1 m/s 707 mmHg 79%
20:00 +7°C° 0.2 mm 0 m/s 707 mmHg 86%
21:00 +7°C° 0.1 mm 0 m/s 707 mmHg 86%
22:00 +7°C° 0.1 mm 1 m/s 707 mmHg 87%
23:00 +7°C° 0.1 mm 1 m/s 706 mmHg 88%

Depois de amanhã, 20 Abril, Terça-feira

Tempo Temperatura Precipitação Vento Pressão Humidade
00:00 +7°C° 0 mm 1 m/s 706 mmHg 89%
01:00 +6°C° 0 mm 1 m/s 706 mmHg 90%
02:00 +6°C° 0 mm 1 m/s 706 mmHg 91%
03:00 +6°C° 0.1 mm 0 m/s 706 mmHg 91%
04:00 +6°C° 0.1 mm 0 m/s 706 mmHg 91%
05:00 +6°C° 0.1 mm 0 m/s 706 mmHg 91%
06:00 +7°C° 0 mm 0 m/s 706 mmHg 89%
07:00 +8°C° 0 mm 0 m/s 706 mmHg 87%
08:00 +9°C° 0 mm 0 m/s 707 mmHg 85%
09:00 +10°C° 0.2 mm 0 m/s 706 mmHg 81%
10:00 +11°C° 0.2 mm 0 m/s 706 mmHg 77%
11:00 +12°C° 0.2 mm 0 m/s 706 mmHg 73%
12:00 +13°C° 0.6 mm 1 m/s 706 mmHg 76%
13:00 +13°C° 0.6 mm 1 m/s 706 mmHg 79%
14:00 +13°C° 0.6 mm 1 m/s 706 mmHg 82%
15:00 +12°C° 0.5 mm 1 m/s 706 mmHg 85%
16:00 +12°C° 0.5 mm 1 m/s 706 mmHg 88%
17:00 +11°C° 0.5 mm 1 m/s 706 mmHg 91%
18:00 +10°C° 0 mm 1 m/s 706 mmHg 93%
19:00 +8°C° 0 mm 1 m/s 706 mmHg 96%
20:00 +6°C° 0 mm 0 m/s 706 mmHg 99%
21:00 +6°C° 0 mm 0 m/s 706 mmHg 99%
22:00 +5°C° 0 mm 0 m/s 706 mmHg 99%
23:00 +5°C° 0 mm 0 m/s 706 mmHg 99%

21 Abril, Quarta-feira

Tempo Temperatura Precipitação Vento Pressão Humidade
00:00 +5°C° 0 mm 0 m/s 706 mmHg 99%
01:00 +5°C° 0 mm 0 m/s 705 mmHg 98%
02:00 +5°C° 0 mm 0 m/s 705 mmHg 98%
03:00 +5°C° 0 mm 0 m/s 705 mmHg 98%
04:00 +4°C° 0 mm 0 m/s 705 mmHg 98%
05:00 +4°C° 0 mm 0 m/s 705 mmHg 98%
06:00 +6°C° 0 mm 0 m/s 705 mmHg 92%
07:00 +8°C° 0 mm 0 m/s 706 mmHg 87%
08:00 +10°C° 0 mm 0 m/s 706 mmHg 81%
09:00 +13°C° 0 mm 1 m/s 706 mmHg 71%
10:00 +15°C° 0 mm 1 m/s 705 mmHg 60%
11:00 +18°C° 0 mm 1 m/s 705 mmHg 50%
12:00 +16°C° 0.1 mm 2 m/s 705 mmHg 55%
13:00 +15°C° 0.1 mm 2 m/s 705 mmHg 59%
14:00 +14°C° 0.1 mm 2 m/s 705 mmHg 64%
15:00 +13°C° 0.2 mm 2 m/s 705 mmHg 70%
16:00 +12°C° 0.2 mm 2 m/s 705 mmHg 75%
17:00 +11°C° 0.2 mm 1 m/s 705 mmHg 81%
18:00 +10°C° 0 mm 1 m/s 705 mmHg 85%
19:00 +9°C° 0 mm 1 m/s 706 mmHg 90%
20:00 +7°C° 0 mm 0 m/s 706 mmHg 94%
21:00 +7°C° 0 mm 0 m/s 706 mmHg 94%
22:00 +7°C° 0 mm 0 m/s 705 mmHg 95%
23:00 +6°C° 0 mm 0 m/s 705 mmHg 95%

22 Abril, Quinta-feira

Tempo Temperatura Precipitação Vento Pressão Humidade
00:00 +6°C° 0 mm 0 m/s 705 mmHg 95%
01:00 +6°C° 0 mm 0 m/s 705 mmHg 96%
02:00 +7°C° 0 mm 1 m/s 705 mmHg 96%
03:00 +6°C° 0 mm 1 m/s 705 mmHg 96%
04:00 +6°C° 0 mm 1 m/s 705 mmHg 97%
05:00 +6°C° 0 mm 1 m/s 704 mmHg 97%
06:00 +9°C° 0 mm 1 m/s 705 mmHg 87%
07:00 +11°C° 0 mm 1 m/s 705 mmHg 78%
08:00 +14°C° 0 mm 1 m/s 705 mmHg 68%
09:00 +15°C° 0 mm 1 m/s 705 mmHg 61%
10:00 +17°C° 0 mm 2 m/s 705 mmHg 54%
11:00 +18°C° 0 mm 2 m/s 705 mmHg 48%
12:00 +17°C° 0.1 mm 2 m/s 705 mmHg 56%
13:00 +16°C° 0.1 mm 1 m/s 705 mmHg 65%
14:00 +14°C° 0.1 mm 1 m/s 704 mmHg 73%
15:00 +14°C° 0.1 mm 1 m/s 704 mmHg 77%
16:00 +12°C° 0.1 mm 0 m/s 704 mmHg 81%
17:00 +11°C° 0.1 mm 0 m/s 704 mmHg 85%
18:00 +11°C° 0 mm 0 m/s 704 mmHg 87%
19:00 +10°C° 0 mm 0 m/s 704 mmHg 89%
20:00 +11°C° 0 mm 1 m/s 704 mmHg 91%
21:00 +11°C° 0 mm 1 m/s 704 mmHg 91%
22:00 +11°C° 0 mm 1 m/s 704 mmHg 91%
23:00 +11°C° 0 mm 1 m/s 704 mmHg 91%

23 Abril, Sexta-feira

Tempo Temperatura Precipitação Vento Pressão Humidade
00:00 +10°C° 0.2 mm 1 m/s 704 mmHg 93%
01:00 +10°C° 0.2 mm 1 m/s 704 mmHg 94%
02:00 +10°C° 0.2 mm 1 m/s 703 mmHg 96%
03:00 +10°C° 0 mm 1 m/s 704 mmHg 96%
04:00 +10°C° 0 mm 1 m/s 704 mmHg 95%
05:00 +10°C° 0 mm 1 m/s 704 mmHg 95%
06:00 +11°C° 0.1 mm 1 m/s 704 mmHg 92%
07:00 +11°C° 0.1 mm 1 m/s 704 mmHg 89%
08:00 +12°C° 0.1 mm 1 m/s 705 mmHg 86%
09:00 +14°C° 0.3 mm 1 m/s 705 mmHg 80%
10:00 +15°C° 0.3 mm 1 m/s 705 mmHg 74%
11:00 +17°C° 0.3 mm 2 m/s 705 mmHg 68%
12:00 +18°C° 0.5 mm 1 m/s 705 mmHg 68%
13:00 +18°C° 0.5 mm 1 m/s 705 mmHg 69%
14:00 +18°C° 0.5 mm 1 m/s 704 mmHg 70%
15:00 +15°C° 0.4 mm 1 m/s 705 mmHg 76%
16:00 +14°C° 0.4 mm 1 m/s 705 mmHg 82%
17:00 +13°C° 0.4 mm 1 m/s 705 mmHg 88%
18:00 +12°C° 0 mm 1 m/s 705 mmHg 92%
19:00 +11°C° 0 mm 1 m/s 705 mmHg 95%
20:00 +9°C° 0 mm 1 m/s 706 mmHg 98%
21:00 +9°C° 0 mm 1 m/s 706 mmHg 98%
22:00 +9°C° 0 mm 1 m/s 705 mmHg 98%
23:00 +9°C° 0 mm 1 m/s 705 mmHg 98%
Mostrar mais

Necessitamos do seu Consentimento

A Meteoprog e os seus Fornecedores de Serviços podem armazenar e aceder a dados pessoais como cookies, identificadores do dispositivo ou outras tecnologias semelhantes existentes no seu dispositivo e processar estes dados para personalizar conteúdos e anúncios, assim como funcionalidades nas redes sociais e análise de tráfego.

  • Armazenar e/ou aceder a informações no seu dispositivo

    Os cookies, identificadores do dispositivo ou outras informações podem ser armazenados ou acedidos no seu dispositivo, para os fins acima indicados.

  • Anúncios e conteúdos personalizados, medição de anúncios e conteúdos, dados sobre o público-alvo e desenvolvimento de produtos

    Os anúncios e os conteúdos podem ser personalizados com base num perfil. Podem ser adicionados dados adicionais para uma maior personalização dos anúncios e dos conteúdos. A eficácia dos anúncios e dos conteúdos pode ser medida. Podem ser obtidas informações sobre o público que visualizou os anúncios e os conteúdos. Estes dados podem ser usados para desenvolver ou melhorar sistemas, softwares ou a experiência do utilizador.

Ao clicar em "Eu concordo”, permitirá o uso de cookies, identificadores do dispositivo e web beacons mencionados ou outras tecnologias semelhantes. As configurações do navegador do seu dispositivo podem ser alteradas.

Para certos fins, podem ser invocados interesses legítimos ao invés de consentimento. Pode ler mais informação sobre este assunto na nossa Política de Privacidade e Cookies.